Location: Unspecified
(0.0000°N, 0.0000°E)
Time: 05:41:19
(UTC+00:00)

Amateur Radio Satellites - All Passes

Search period start: 25 November 2017 05:11
Search period end: 26 November 2017 05:11
Location: Unspecified, 0.0000°N, 0.0000°E

Satellite Date Start Highest point End Downlink Frequencies (MHz)
Time Altitude Azimuth
KAITUO 1B 25 Nov 05:15:34 05:18:11 18° 101° (ESE) 05:20:49 145.475/437.950
KKS-1 25 Nov 05:32:33 05:36:21 28° 258° (WSW) 05:40:10 437.445
CUTE-I 25 Nov 05:34:38 05:39:39 43° 103° (ESE) 05:44:40 437.470
XW-2D 25 Nov 05:40:10 05:44:00 78° 101° (ESE) 05:47:51 145.860 - 145.880
STARS 25 Nov 05:44:09 05:48:32 62° 258° (WSW) 05:52:55 437.465
DOVE 4 25 Nov 05:49:56 05:51:31 12° 283° (WNW) 05:53:04 437.250
NUDT-PHONESAT 25 Nov 05:51:36 05:55:18 67° 101° (E) 05:59:02 437.300
XW-2B 25 Nov 05:55:11 05:58:58 62° 280° (W) 06:02:47 145.730 - 145.750
YUBILEINY 25 Nov 05:56:50 06:04:00 29° 273° (W) 06:11:14 435.215
JUGNU 25 Nov 05:57:15 06:02:01 24° 163° (SSE) 06:06:47 437.505
SRMSAT 25 Nov 06:03:14 06:03:26 10° 178° (S) 06:03:38 437.500
XW-2C 25 Nov 06:21:46 06:24:49 23° 281° (W) 06:27:53 145.795 - 145.815
CUTE 1.7 + AOD 2 25 Nov 06:23:29 06:27:35 45° 101° (ESE) 06:31:41 437.475
CUBEBUG 2 25 Nov 06:27:54 06:31:20 25° 102° (ESE) 06:34:50 437.445
XW-2F 25 Nov 06:28:40 06:31:28 20° 281° (W) 06:34:18 145.980 - 146.000
LilacSat-2 25 Nov 06:29:42 06:32:09 16° 281° (WNW) 06:34:38 437.200
HO-68 25 Nov 06:37:41 06:44:48 73° 105° (ESE) 06:51:56 435.675
RS-15 25 Nov 06:41:03 06:47:41 18° 248° (WSW) 06:54:19 29.354- 29.394
AAUSAT CUBESAT 2 25 Nov 06:41:21 06:43:24 13° 102° (ESE) 06:45:27 437.432
SEEDS 25 Nov 06:45:34 06:49:41 50° 101° (ESE) 06:53:47 437.485
KAITUO 1B 25 Nov 06:50:03 06:51:53 13° 281° (WNW) 06:53:43 145.475/437.950
FO-29 25 Nov 06:57:17 06:58:19 10° 73° (ENE) 06:59:23 435.910
ZACube-1 25 Nov 06:57:44 06:59:52 14° 103° (ESE) 07:02:02 437.345
SO-50 25 Nov 06:58:43 07:03:24 64° 68° (ENE) 07:08:08 436.795
STRAND 1 25 Nov 07:08:50 07:14:01 88° 76° (ENE) 07:19:10 437.568
UWE-3 25 Nov 07:15:00 07:19:08 59° 102° (ESE) 07:23:24 435.000/436.395/437.385
CUTE-I 25 Nov 07:17:37 07:19:24 12° 283° (WNW) 07:21:10 437.470
XW-2A 25 Nov 07:40:41 07:43:57 47° 281° (W) 07:47:16 145.665 - 145.685
AO-73 25 Nov 07:43:55 07:48:05 56° 102° (ESE) 07:52:23 145.935
JUGNU 25 Nov 07:45:21 07:51:17 61° 159° (SSE) 07:57:12 437.505
SRMSAT 25 Nov 07:50:13 07:53:41 16° 168° (SSE) 07:57:08 437.500
Oscar 11 25 Nov 07:55:41 07:59:51 48° 102° (ESE) 08:04:03 .
CUBEBUG 2 25 Nov 08:06:07 08:07:42 12° 281° (W) 08:09:17 437.445
AAUSAT CUBESAT 2 25 Nov 08:15:19 08:18:34 22° 281° (WNW) 08:21:49 437.432
HO-68 25 Nov 08:31:06 08:32:08 10° 286° (WNW) 08:33:09 435.675
ZACube-1 25 Nov 08:32:27 08:35:51 24° 281° (W) 08:39:21 437.345
FO-29 25 Nov 08:36:56 08:42:43 62° 258° (WSW) 08:49:17 435.910
PCSat 25 Nov 08:52:32 08:55:37 15° 70° (ENE) 08:58:41 145.827
UNISAT 6 25 Nov 09:25:34 09:30:15 82° 77° (ENE) 09:34:50 437.425
TIGRISAT 25 Nov 09:28:40 09:33:22 80° 78° (ENE) 09:37:56 435.000
JUGNU 25 Nov 09:34:34 09:40:21 49° 339° (NNW) 09:46:07 437.505
EO-88 25 Nov 09:38:01 09:41:39 83° 101° (E) 09:45:20 145.990 - 145.960
SRMSAT 25 Nov 09:38:01 09:43:23 34° 161° (SSE) 09:48:43 437.500
DELFI C3 25 Nov 09:39:32 09:43:08 35° 282° (WNW) 09:46:45 145.870
Max Valier Satellite 25 Nov 09:50:13 09:53:37 35° 281° (W) 09:57:03 145.860
AIST 2D 25 Nov 10:26:43 10:29:43 28° 79° (E) 10:32:41 435.315
PCSat 25 Nov 10:33:53 10:38:44 34° 251° (WSW) 10:43:36 145.827
QB50P2 25 Nov 10:37:46 10:39:32 12° 78° (ENE) 10:41:18 145.880/145.840
PRISM 25 Nov 10:40:00 10:43:41 32° 258° (WSW) 10:47:22 437.425
O/OREOS (USA 219) 25 Nov 10:48:05 10:51:49 24° 104° (ESE) 10:55:32 437.305
DUCHIFAT 1 25 Nov 11:18:04 11:21:48 30° 78° (ENE) 11:25:29 145.980
LO-87 25 Nov 11:21:54 11:24:56 28° 281° (W) 11:28:00 145.935 - 145.965
ESTCUBE 1 25 Nov 11:23:58 11:28:24 58° 282° (WNW) 11:32:53 437.505/2401.250
NO-84 25 Nov 11:24:01 11:26:58 61° 302° (WNW) 11:30:06 435.350 FM
JUGNU 25 Nov 11:25:22 11:29:41 20° 344° (NNW) 11:33:59 437.505
SRMSAT 25 Nov 11:26:41 11:32:39 89° 339° (NNW) 11:38:36 437.500
VELOX 1 25 Nov 11:27:19 11:29:03 12° 102° (ESE) 11:30:46 145.980
EO-79 25 Nov 11:30:33 11:34:48 69° 78° (ENE) 11:39:01 145.935-145.965
NANOSAT C BR1 25 Nov 11:30:48 11:34:58 58° 79° (ENE) 11:39:07 145.865
POLYITAN 1 25 Nov 11:47:09 11:51:24 67° 259° (W) 11:55:36 437.675
SPROUT 25 Nov 11:47:33 11:51:35 45° 102° (ESE) 11:55:38 437.525
BUGSAT 1 25 Nov 11:53:54 11:56:27 16° 78° (ENE) 11:58:59 437.445
BEESAT 2 25 Nov 12:04:40 12:07:12 17° 68° (ENE) 12:09:45 435.950
QB50P2 25 Nov 12:11:30 12:15:03 25° 258° (WSW) 12:18:34 145.880/145.840
AO-85 25 Nov 12:18:25 12:19:18 10° 68° (ENE) 12:20:11 145.980
BEESAT 3 25 Nov 12:18:31 12:22:08 43° 249° (WSW) 12:25:45 437.485
Oscar 19 25 Nov 12:27:20 12:31:18 23° 77° (ENE) 12:35:15 437.125/150
O/OREOS (USA 219) 25 Nov 12:28:26 12:30:56 14° 285° (WNW) 12:33:26 437.305
DUCHIFAT 1 25 Nov 12:57:00 12:57:09 10° 258° (WSW) 12:57:19 145.980
VELOX 1 25 Nov 13:01:26 13:05:12 28° 282° (WNW) 13:08:59 145.980
SRMSAT 25 Nov 13:16:39 13:21:55 33° 341° (NNW) 13:27:11 437.500
JUGNU 25 Nov 13:18:03 13:19:33 11° 353° (N) 13:21:03 437.505
AO-91 25 Nov 13:21:00 13:26:03 74° 259° (W) 13:31:23 145.960
50 SAT 25 Nov 13:21:45 13:24:54 70° 282° (WNW) 13:28:04 437.505
Gurwin Techsat 1B 25 Nov 13:27:29 13:32:49 84° 76° (ENE) 13:38:07 435.225
BUGSAT 1 25 Nov 13:28:23 13:31:31 20° 258° (WSW) 13:34:38 437.445
DX 1 25 Nov 13:31:47 13:36:06 74° 283° (WNW) 13:40:26 434.975-435.025
BEESAT 2 25 Nov 13:42:17 13:44:39 16° 248° (WSW) 13:47:01 435.950
AO-85 25 Nov 13:54:25 13:59:28 51° 248° (WSW) 14:04:41 145.980
AO-7 25 Nov 13:57:44 14:03:34 21° 73° (ENE) 14:09:21 .
UKube-1 25 Nov 14:04:14 14:08:20 45° 282° (WNW) 14:12:28 .
Oscar 19 25 Nov 14:06:32 14:10:20 21° 257° (WSW) 14:14:08 437.125/150
M-CUBED/EXP-1 PRIME 25 Nov 14:07:24 14:10:25 33° 74° (ENE) 14:13:34 437.505
FALCONSAT 3 25 Nov 14:16:49 14:17:48 11° 36° (NE) 14:18:48 435.103
ITAMSAT 1 25 Nov 14:30:10 14:33:42 18° 77° (ENE) 14:37:13 435.822/435.867
MOZHAYETS 4 25 Nov 14:49:51 14:54:26 79° 101° (E) 14:59:04
SRMSAT 25 Nov 15:08:20 15:11:36 15° 348° (NNW) 15:14:53 437.500
BEESAT 25 Nov 15:08:25 15:13:10 86° 282° (WNW) 15:17:56 436.000
CUBESAT XI-V 25 Nov 15:14:35 15:18:24 25° 102° (ESE) 15:22:14 437.345
ITUPSAT 1 25 Nov 15:21:23 15:26:03 60° 282° (WNW) 15:30:46 437.325
nSIGHT-1 25 Nov 15:30:12 15:31:57 14° 126° (SE) 15:33:41 .
AO-7 25 Nov 15:48:01 15:55:56 50° 254° (WSW) 16:03:51 .
FALCONSAT 3 25 Nov 15:53:11 15:56:51 69° 217° (SW) 16:00:31 435.103
RS-15 25 Nov 16:05:19 16:16:58 60° 110° (ESE) 16:28:57 29.354- 29.394
ITAMSAT 1 25 Nov 16:08:29 16:12:53 28° 257° (WSW) 16:17:16 435.822/435.867
KKS-1 25 Nov 16:09:18 16:12:23 19° 102° (ESE) 16:15:28 437.445
ISS 25 Nov 16:27:59 16:31:16 82° 125° (SE) 16:34:32 437.550
DOVE 4 25 Nov 16:29:07 16:33:48 61° 78° (ENE) 16:38:46 437.250
YUBILEINY 25 Nov 16:32:26 16:41:10 69° 87° (E) 16:49:52 435.215
LilacSat-2 25 Nov 16:51:01 16:52:26 12° 79° (ENE) 16:53:50 437.200
CUBESAT XI-V 25 Nov 16:52:37 16:55:29 16° 282° (WNW) 16:58:22 437.345
JUGNU 25 Nov 16:56:06 16:59:44 17° 14° (NNE) 17:03:21 437.505
nSIGHT-1 25 Nov 17:05:49 17:07:58 17° 306° (NW) 17:10:06 .
KAITUO 1B 25 Nov 17:08:29 17:10:10 13° 79° (ENE) 17:11:52 145.475/437.950
XW-2D 25 Nov 17:33:48 17:37:29 59° 79° (E) 17:41:09 145.860 - 145.880
NUDT-PHONESAT 25 Nov 17:42:48 17:46:19 45° 79° (ENE) 17:49:48 437.300
KKS-1 25 Nov 17:45:35 17:48:40 19° 282° (WNW) 17:51:45 437.445
XW-2B 25 Nov 17:48:45 17:52:29 80° 259° (W) 17:56:12 145.730 - 145.750
STARS 25 Nov 17:55:02 17:59:09 43° 282° (WNW) 18:03:17 437.465
STRAND 1 25 Nov 18:05:20 18:07:37 13° 103° (ESE) 18:09:54 437.568
CUTE-I 25 Nov 18:13:38 18:18:56 64° 257° (WSW) 18:24:14 437.470
XW-2C 25 Nov 18:15:09 18:18:22 27° 259° (WSW) 18:21:34 145.795 - 145.815
RS-15 25 Nov 18:19:57 18:29:08 26° 292° (WNW) 18:38:33 29.354- 29.394
XW-2F 25 Nov 18:21:26 18:24:29 24° 259° (WSW) 18:27:31 145.980 - 146.000
LilacSat-2 25 Nov 18:23:43 18:26:26 19° 258° (WSW) 18:29:08 437.200
HO-68 25 Nov 18:29:19 18:36:24 62° 76° (ENE) 18:43:28 435.675
CUTE 1.7 + AOD 2 25 Nov 18:29:41 18:33:49 56° 78° (ENE) 18:37:54 437.475
YUBILEINY 25 Nov 18:33:58 18:37:33 13° 267° (W) 18:41:08 435.215
CUBEBUG 2 25 Nov 18:39:29 18:43:55 41° 79° (E) 18:48:13 437.445
KAITUO 1B 25 Nov 18:41:28 18:43:52 17° 259° (WSW) 18:46:16 145.475/437.950
JUGNU 25 Nov 18:43:45 18:49:09 38° 20° (NNE) 18:54:33 437.505
AAUSAT CUBESAT 2 25 Nov 18:44:21 18:46:39 15° 79° (ENE) 18:48:57 437.432
SRMSAT 25 Nov 18:50:03 18:52:10 12° 9° (N) 18:54:17 437.500
SEEDS 25 Nov 18:50:39 18:54:44 59° 79° (E) 18:58:49 437.485
ZACube-1 25 Nov 19:06:41 19:09:51 19° 79° (E) 19:12:57 437.345
SO-50 25 Nov 19:11:40 19:16:08 68° 292° (WNW) 19:20:33 436.795
XW-2A 25 Nov 19:22:53 19:26:13 75° 79° (E) 19:29:31 145.665 - 145.685
UWE-3 25 Nov 19:25:56 19:30:32 89° 81° (E) 19:35:00 435.000/436.395/437.385
STRAND 1 25 Nov 19:41:54 19:46:30 36° 283° (WNW) 19:51:08 437.568
AO-73 25 Nov 19:53:21 19:57:47 80° 79° (E) 20:02:05 145.935
Oscar 11 25 Nov 20:04:17 20:08:33 65° 79° (ENE) 20:12:47 .
FO-29 25 Nov 20:10:24 20:17:30 76° 102° (ESE) 20:23:44 435.910
AAUSAT CUBESAT 2 25 Nov 20:18:50 20:21:49 20° 258° (WSW) 20:24:49 437.432
HO-68 25 Nov 20:20:33 20:23:44 13° 255° (WSW) 20:26:56 435.675
JUGNU 25 Nov 20:32:21 20:38:12 77° 201° (SSW) 20:44:04 437.505
SRMSAT 25 Nov 20:37:27 20:42:06 23° 17° (NNE) 20:46:45 437.500
ZACube-1 25 Nov 20:42:51 20:45:50 18° 258° (WSW) 20:48:47 437.345
PCSat 25 Nov 21:26:36 21:31:47 48° 109° (ESE) 21:36:58 145.827
EO-88 25 Nov 21:27:34 21:31:06 52° 79° (E) 21:34:37 145.990 - 145.960
DELFI C3 25 Nov 21:37:19 21:40:59 37° 259° (WSW) 21:44:39 145.870
UNISAT 6 25 Nov 21:38:48 21:43:02 64° 281° (WNW) 21:47:22 437.425
Max Valier Satellite 25 Nov 21:40:52 21:44:27 50° 259° (W) 21:47:59 145.860
TIGRISAT 25 Nov 21:41:45 21:45:58 66° 281° (W) 21:50:18 435.000
AIST 2D 25 Nov 22:12:53 22:15:13 17° 101° (E) 22:17:35 435.315
JUGNU 25 Nov 22:22:20 22:27:20 29° 198° (SSW) 22:32:22 437.505
SRMSAT 25 Nov 22:25:38 22:31:30 59° 21° (NNE) 22:37:24 437.500
PRISM 25 Nov 22:42:27 22:46:04 30° 282° (WNW) 22:49:39 437.425
QB50P2 25 Nov 22:43:09 22:45:33 15° 102° (ESE) 22:47:56 145.880/145.840
O/OREOS (USA 219) 25 Nov 22:58:35 23:02:48 41° 76° (ENE) 23:07:00 437.305
NO-84 25 Nov 23:05:34 23:09:42 84° 238° (WSW) 23:13:38 435.350 FM
LO-87 25 Nov 23:09:04 23:12:35 47° 259° (WSW) 23:16:03 145.935 - 145.965
PCSat 25 Nov 23:13:49 23:14:56 11° 290° (WNW) 23:16:03 145.827
DUCHIFAT 1 25 Nov 23:23:02 23:26:50 35° 102° (ESE) 23:30:39 145.980
NANOSAT C BR1 25 Nov 23:36:12 23:40:21 70° 103° (ESE) 23:44:31 145.865
EO-79 25 Nov 23:36:23 23:40:34 84° 105° (ESE) 23:44:47 145.935-145.965
VELOX 1 25 Nov 23:37:27 23:40:24 18° 78° (ENE) 23:43:20 145.980
ESTCUBE 1 25 Nov 23:38:19 23:42:25 36° 258° (WSW) 23:46:30 437.505/2401.250
AIST 2D 25 Nov 23:46:50 23:48:07 12° 281° (W) 23:49:24 435.315
POLYITAN 1 25 Nov 23:53:14 23:57:19 53° 281° (W) 00:01:25 437.675
SPROUT 25 Nov 23:54:18 23:58:32 58° 78° (ENE) 00:02:45 437.525
BUGSAT 1 25 Nov 23:56:42 23:59:09 16° 102° (ESE) 00:01:38 437.445
BEESAT 2 25 Nov 23:57:05 23:59:44 17° 112° (ESE) 00:02:24 435.950
BEESAT 3 26 Nov 00:09:33 00:13:17 45° 291° (WNW) 00:17:05 437.485
JUGNU 26 Nov 00:14:03 00:16:57 14° 191° (S) 00:19:52 437.505
SRMSAT 26 Nov 00:14:56 00:20:44 51° 200° (SSW) 00:26:33 437.500
QB50P2 26 Nov 00:17:55 00:21:03 21° 282° (WNW) 00:24:12 145.880/145.840
Gurwin Techsat 1B 26 Nov 00:28:33 00:31:34 15° 103° (ESE) 00:34:34 435.225
AO-85 26 Nov 00:30:34 00:32:13 12° 113° (ESE) 00:33:50 145.980
50 SAT 26 Nov 00:59:26 01:02:28 38° 79° (ENE) 01:05:28 437.505
Oscar 19 26 Nov 00:59:45 01:04:51 60° 103° (ESE) 01:09:58 437.125/150
VELOX 1 26 Nov 01:13:21 01:16:33 20° 258° (WSW) 01:19:46 145.980
BUGSAT 1 26 Nov 01:31:36 01:34:14 17° 282° (WNW) 01:36:54 437.445
AO-91 26 Nov 01:34:32 01:37:59 39° 282° (WNW) 01:41:14 145.960
BEESAT 2 26 Nov 01:34:48 01:37:11 16° 292° (WNW) 01:39:36 435.950
DX 1 26 Nov 01:41:22 01:45:37 53° 257° (WSW) 01:49:51 434.975-435.025
FALCONSAT 3 26 Nov 02:00:25 02:00:48 10° 145° (SE) 02:01:13 435.103
M-CUBED/EXP-1 PRIME 26 Nov 02:05:19 02:09:36 40° 105° (ESE) 02:13:42 437.505
SRMSAT 26 Nov 02:05:48 02:10:14 21° 196° (SSW) 02:14:40 437.500
Gurwin Techsat 1B 26 Nov 02:06:29 02:11:12 34° 283° (WNW) 02:15:58 435.225
ITUPSAT 1 26 Nov 02:08:24 02:10:47 14° 77° (ENE) 02:13:11 437.325
AO-85 26 Nov 02:09:24 02:12:21 20° 291° (WNW) 02:15:15 145.980
UKube-1 26 Nov 02:12:43 02:16:38 34° 258° (WSW) 02:20:33 .
AO-7 26 Nov 02:22:24 02:29:49 36° 107° (ESE) 02:37:15 .
ITAMSAT 1 26 Nov 03:03:39 03:08:36 48° 103° (ESE) 03:13:34 435.822/435.867
MOZHAYETS 4 26 Nov 03:06:39 03:11:11 60° 258° (WSW) 03:15:40
YUBILEINY 26 Nov 03:14:03 03:18:12 14° 93° (E) 03:22:21 435.215
BEESAT 26 Nov 03:30:30 03:35:02 43° 257° (WSW) 03:39:33 436.000
CUBESAT XI-V 26 Nov 03:32:16 03:36:36 42° 78° (ENE) 03:40:55 437.345
FALCONSAT 3 26 Nov 03:36:13 03:39:53 74° 323° (NW) 03:43:31 435.103
ITUPSAT 1 26 Nov 03:44:09 03:48:20 30° 257° (WSW) 03:52:30 437.325
RS-15 26 Nov 03:49:08 03:59:47 49° 69° (ENE) 04:10:03 29.354- 29.394
JUGNU 26 Nov 03:54:35 03:57:15 13° 170° (S) 03:59:55 437.505
SRMSAT 26 Nov 03:58:24 04:00:16 11° 187° (S) 04:02:09 437.500
ISS 26 Nov 04:01:56 04:05:03 45° 55° (NE) 04:08:11 437.550
AO-7 26 Nov 04:15:10 04:22:12 31° 287° (WNW) 04:29:18 .
KKS-1 26 Nov 04:20:57 04:24:45 28° 78° (ENE) 04:28:33 437.445
STARS 26 Nov 04:32:30 04:33:48 11° 78° (ENE) 04:35:06 437.465
nSIGHT-1 26 Nov 04:37:11 04:39:57 28° 234° (SW) 04:42:44 .
DOVE 4 26 Nov 04:50:23 04:55:01 69° 282° (WNW) 04:59:25 437.250
